Flag for U.S.A. Weather past 2 weeks in Woodstock, New York, U.S.A.

Now
56 °F

Overcast.


Feels Like: 55 °F
Forecast: 46 / 60 °F
Wind: 5 mph from East

Location: Dutchess County Airport

Current Time: Apr 20, 2015 at 9:29:44 PM

Latest Report: Apr 20, 2015 at 8:53 PM


Visibility: 10 mi

Pressure: 29.63 "Hg

Humidity: 90%

Dew point: 53 °F

Location of WoodstockLocation

Historic Weather in Woodstock — Graph

°F

Woodstock temperature yesterday

Maximum temperature yesterday: 66 °F (at 3:53 PM)
Minimum temperature yesterday: 44 °F (at 5:53 AM)
Average temperature yesterday: 54 °F

Past Weeks' High & Low Weather Summary

 TemperatureHumidityPressure
High80 °F (Apr 18, 3:53 PM)97% (Apr 11, 3:53 AM)30.48 "Hg (Apr 11, 3:53 AM)
Low28 °F (Apr 12, 4:53 AM)14% (Apr 15, 4:53 PM)29.65 "Hg (Apr 20, 6:53 PM)
Average51 °F62%30.14 "Hg
* Reported Apr 5 7:53 PM — Apr 20 7:53 PM, Woodstock, Weather by CustomWeather, © 2015

Note: Actual official high and low records may vary slightly from our data, if they occured in-between our weather recording intervals... More about our weather records

Advertising

Woodstock weather history for previous 24 hours

 ConditionsComfort  
Time TempWeatherWind HumidityBarometerVisibility
7:53 PM
Mon, Apr 20
57 °FOvercast.3 mph83%29.65 "Hg10 mi
6:53 PM57 °FOvercast.8 mph83%29.65 "Hg10 mi
5:53 PM58 °FOvercast.6 mph81%29.68 "Hg10 mi
4:53 PM58 °FOvercast.7 mph81%29.66 "Hg10 mi
4:00 PM58 °FOvercast.7 mph81%29.68 "Hg10 mi
2:53 PM57 °FOvercast.7 mph83%29.71 "Hg2 mi
1:53 PM55 °FLight rain. Fog.5 mph87%29.74 "Hg2 mi
1:00 PM54 °FLight rain. Overcast.No wind83%29.78 "Hg3 mi
11:53 AM51 °FLight rain. Fog.8 mph86%29.78 "Hg2 mi
10:53 AM51 °FRain. Fog.15 mph86%29.83 "Hg2 mi
9:53 AM50 °FLight rain. Overcast.10 mph83%29.85 "Hg2 mi
9:00 AM49 °FLight rain. Overcast.14 mph80%29.89 "Hg2 mi
7:53 AM49 °FMore clouds than sun.14 mph74%29.92 "Hg10 mi
6:53 AM47 °FOvercast.14 mph77%29.93 "Hg10 mi
5:53 AM46 °FOvercast.10 mph77%29.97 "Hg10 mi
4:53 AM46 °FOvercast.9 mph77%30.03 "Hg10 mi
3:53 AM46 °FLight rain. Overcast.5 mph71%30.05 "Hg10 mi
2:53 AM47 °FPassing clouds.7 mph61%30.08 "Hg10 mi
1:53 AM47 °FClear.6 mph59%30.11 "Hg10 mi
12:53 AM48 °FClear.3 mph50%30.13 "Hg10 mi
11:53 PM
Sun, Apr 19
49 °FClear.8 mph52%30.14 "Hg10 mi
10:53 PM50 °FClear.6 mph50%30.16 "Hg10 mi
9:53 PM52 °FClear.8 mph45%30.16 "Hg10 mi
Weather by CustomWeather, © 2015

See weather overviewHow to use our weather pages